Regional Weather Roundup
Issued by NWS Charleston, SC

Current Version | Previous Version | Graphics & Text | Print | Product List | Glossary On
Versions: 1 2 3 4 5 6 7 8 9 10 11 12 13 14 15 16 17 18 19 20 21 22 23 24 25 26 27 28 29 30 31 32 33 34 35 36 37 38 39 40 41 42 43 44 45 46 47 48 49 50
000 ASUS42 KCHS 260810 RWRCHS REGIONAL WEATHER ROUNDUP NATIONAL WEATHER SERVICE CHARLESTON SC 300 AM EST MON JAN 26 2015 NOTE: "FAIR" INDICATES FEW OR NO CLOUDS BELOW 12,000 FEET WITH NO SIGNIFICANT WEATHER AND/OR OBSTRUCTIONS TO VISIBILITY. NOT ALL STATIONS ARE QUALITY CONTROLLED BY THE NATIONAL WEATHER SERVICE. USE DATA WITH CAUTION...ESPECIALLY DEWPOINT OBSERVATIONS. SCZ027-030-031-034>040-042>050-260900- ...SOUTHEAST SOUTH CAROLINA... CITY SKY/WX TMP DP RH WIND PRES REMARKS N CHARLESTON MOCLDY 51 45 79 SW8 29.77F WATERFRONT PRK N/A 54 N/A N/A SW8 N/A MOUNT PLEASANT PTSUNNY N/A N/A N/A SW7 29.77F PINOPOLIS NOT AVBL MONCKS CORNER PTSUNNY 48 43 81 SW5 29.76F SUMMERVILLE FAIR 45 45 100 S3 29.77 BEAUFORT MCAS PTCLDY 51 45 79 SW14 29.77F BEAUFORT ARPT FAIR 52 46 82 SW8 29.76F HILTON HEAD IS MOCLDY 52 46 82 S8 29.78F WALTERBORO NOT AVBL ALLENDALE FAIR 46 41 81 VRB5 29.74F ...SOUTHERN MIDLANDS AND PEE DEE... CITY SKY/WX TMP DP RH WIND PRES REMARKS GEORGETOWN NOT AVBL KINGSTREE NOT AVBL ORANGEBURG PTCLDY 42 37 82 S7 29.73F BARNWELL FAIR 45 37 76 SW5 29.74F AIKEN PTSUNNY 46 39 76 SW10 29.74S MANNING NOT AVBL COLUMBIA PTCLDY 45 35 68 SW8 29.70F SUMTER MOCLDY 41 38 87 S7 29.70F FLORENCE CLOUDY 43 40 89 S6 29.72F MYRTLE BEACH MOCLDY 52 43 71 SW8 29.78F N MYRTLE BEACH MOCLDY 48 44 86 SW8 29.75F $$ GAZ063-065-086>088-099>101-113>116-118-119-134>141-150-260900- ...SOUTHEAST GEORGIA... CITY SKY/WX TMP DP RH WIND PRES REMARKS SAVANNAH ARPT PTCLDY 49 43 80 SW7 29.77F HUNTER AAF MOCLDY 50 46 87 SW6 29.75F FORT STEWART PTCLDY 47 44 87 SW3 29.76F STATESBORO PTCLDY 43 43 100 CALM 29.76F SYLVANIA MOSUNNY 43 42 96 CALM 29.76F CLAXTON FAIR 45 45 100 CALM 29.78S ...CSRA...CENTRAL AND FAR SOUTHEAST GEORGIA... CITY SKY/WX TMP DP RH WIND PRES REMARKS THOMSON PTCLDY 48 42 79 SW6 29.77S AUGUSTA-BUSH MOCLDY 48 39 71 W13 29.72F AUGUSTA-DANIEL PTCLDY 49 40 71 VRB7 29.72F SWAINSBORO FAIR 48 43 81 W6 29.76F VIDALIA PTCLDY 46 46 100 SW6 29.77S EASTMAN FAIR 48 48 100 W5 29.80S HAZLEHURST FAIR 50 50 99 SW5 29.77S ALMA MOCLDY 48 46 93 SW5 29.79S WAYCROSS CLOUDY 53 51 93 SW6 29.79F JESUP FAIR 50 48 93 CALM 29.79F BAXLEY FAIR 50 48 93 W3 29.78S BRUNSWICK MOCLDY 52 46 82 SW8 29.80F SAINT SIMONS CLOUDY 52 47 83 SW10 29.80F $$ SCZ027-028-034-036>038-045-046-048>050-GAZ119-141-260900- ...LAKE AND SUPPLEMENTAL COASTAL OBSERVATIONS... STATION/POSITION TIME TEMP WIND PRES WAVE SWELL AIR SEA DIR/SP/G HT/PER HT/PER/DIR (UTC) (F) (DEG/KT/KT) (MB) (FT/S) (FT/S/D) UPR LAKE MARION NOT AVBL WINYAH BAY 0700 49 210/ 4 1007.0F LAKE MURRAY 0700 47 210/ 11/ 15 1005.1F ACE BASIN NERRS NOT AVBL FORT PULASKI 0800 52 54 210/ 5/ 9 1008.8F SAPELO ISLAND 0700 51 200/ 10 1009.0F $$ ANZ835-935-AMZ111-154-330-350-352-354-370-450-454-472-260900- ...C-MAN AND BUOY OBSERVATIONS... STATION/POSITION TIME TEMP WIND PRES WAVE SWELL AIR SEA DIR/SP/G HT/PER HT/PER/DIR (UTC) (F) (DEG/KT/KT) (MB) (FT/S) (FT/S/D) BUOY 41004 0800 62 69 240/ 21/ 27 1007.9F 7/ 7 2/10 BUOY 41008 0800 56 55 220/ 16/ 17 1008.4F 4/ 5 FOLLY BEACH CMAN 0700 54 230/ 11/ 16 1009.1F CAPERS NEARSHORE 0700 55 230/ 17/ 19 N/A FRIPP NEARSHORE 0700 55 230/ 19/ 21 N/A STATION/POSITION TIME TEMP WIND PRES WAVE SWELL AIR SEA DIR/SP/G HT/PER HT/PER/DIR (UTC) (F) (DEG/KT/KT) (MB) (FT/S) (FT/S/D) 5E ST. MARYS GA 0800 58 N/A 3/ 4 FRYING PAN BUOY 0800 61 67 230/ 19/ 21 1008.4F 6/ 6 2/110/ 9 BUOY 41025 0800 63 69 220/ 16/ 19 1008.1F 4/ 8 3/ 80/ 8 CAPE LOOKOUT NC 0700 54 250/ 4/ 5 1008.6F BUOY 41002 0658 68 72 240/ 14/ 17 1011.1F 5/ 7 3/250/ 7 BUOY 41010 0800 67 76 250/ 17/ 21 1011.8F 4/ 5 2/ 80/10 ST AUGUSTINE FL 0800 54 190/ 7/ 9 1010.4F $$

USA.gov is the U.S. government's official web portal to all federal, state and local government web resources and services.